Change the Weather History Date:

Monday, April 7, 2014

  Actual Average Record
Temperature  
Mean Temperature 42 °F -  
Max Temperature 57 °F 48 °F 68 °F (2005)
Min Temperature 26 °F 26 °F 8 °F (1997)
Degree Days  
Heating Degree Days 24    
Moisture  
Dew Point 23 °F    
Average Humidity 46    
Maximum Humidity 69    
Minimum Humidity 31    
Precipitation  
Precipitation 0.00 in - - ()
Sea Level Pressure  
Sea Level Pressure 30.08 in    
Wind  
Wind Speed 10 mph ()    
Max Wind Speed 30 mph    
Max Gust Speed 38 mph    
Visibility 9.0 miles    
Events      
Averages and records for this station are not official NWS values.
T = Trace of Precipitation, MM = Missing Value Source: Averaged Metar Reports

Daily Weather History Graph

Daily Weather History Graph

Search for Another Location

Airport or City:

Trip Planner

Search our weather history database for the weather conditions in past years. The results will help you decide how hot, cold, wet, or windy it might be!

Date:

Astronomy

Apr. 07, 2014 Rise Set
Actual Time 6:59 AM MDT 8:20 PM MDT
Civil Twilight 6:25 AM MDT 8:54 PM MDT
Nautical Twilight 5:43 AM MDT 9:36 PM MDT
Astronomical Twilight 4:58 AM MDT 10:22 PM MDT
Moon 12:42 PM MDT (4/7) 3:18 AM MDT (4/7)
Length of Visible Light 14h 29m
Length of Day
13h 20m
First Quarter, 54% of the Moon is Illuminated
Apr 7
First Quarter
Apr 15
Full
Apr 22
Last Quarter
Apr 29
New
May 6
First Quarter

Hourly Weather History & Observations

Time (MDT) Temp. Windchill Dew Point Humidity Pressure Visibility Wind Dir Wind Speed Gust Speed Precip Events Conditions
12:00 AM 30.2 °F 22.6 °F 19.4 °F 64% 30.13 in 9.0 mi NNW 8.1 mph - N/A   Clear
1:00 AM 33.8 °F - 17.6 °F 52% 30.14 in 9.0 mi Calm Calm - N/A   Clear
2:00 AM 35.6 °F 30.7 °F 17.6 °F 48% 30.14 in 9.0 mi WNW 5.8 mph - N/A   Scattered Clouds
3:00 AM 33.8 °F 27.7 °F 17.6 °F 52% 30.13 in 9.0 mi NW 6.9 mph - N/A   Mostly Cloudy
4:00 AM 30.2 °F 25.4 °F 19.4 °F 64% 30.12 in 9.0 mi South 4.6 mph - N/A   Mostly Cloudy
5:00 AM 30.2 °F 25.4 °F 17.6 °F 60% 30.12 in 9.0 mi WSW 4.6 mph - N/A   Mostly Cloudy
6:00 AM 26.6 °F - 17.6 °F 69% 30.14 in 9.0 mi Variable 2.3 mph - N/A   Clear
7:00 AM 32.0 °F 27.5 °F 19.4 °F 60% 30.14 in 9.0 mi SW 4.6 mph - N/A   Clear
8:00 AM 33.8 °F 30.8 °F 23.0 °F 65% 30.14 in 9.0 mi ESE 3.5 mph - N/A   Clear
9:00 AM 37.4 °F - 23.0 °F 56% 30.13 in 9.0 mi South 2.3 mph - N/A   Clear
9:37 AM 46.4 °F 39.8 °F 23.0 °F 40% 30.09 in 9.0 mi WNW 16.1 mph - N/A   Partly Cloudy
10:00 AM 48.2 °F - 24.8 °F 40% 30.08 in 9.0 mi WNW 20.7 mph - N/A   Clear
11:00 AM 51.8 °F - 24.8 °F 35% 30.07 in 9.0 mi WNW 23.0 mph 34.5 mph N/A   Clear
12:00 PM 53.6 °F - 24.8 °F 33% 30.09 in 9.0 mi West 24.2 mph 31.1 mph N/A   Scattered Clouds
1:00 PM 55.4 °F - 26.6 °F 33% 30.05 in 9.0 mi West 25.3 mph 35.7 mph N/A   Clear
2:00 PM 57.2 °F - 26.6 °F 31% 30.04 in 9.0 mi West 26.5 mph 35.7 mph N/A   Clear
3:00 PM 57.2 °F - 26.6 °F 31% 30.04 in 9.0 mi West 27.6 mph 36.8 mph N/A   Clear
4:00 PM 57.2 °F - 26.6 °F 31% 30.05 in 9.0 mi West 29.9 mph 38.0 mph N/A   Clear
5:00 PM 55.4 °F - 26.6 °F 33% 30.06 in 9.0 mi West 29.9 mph 36.8 mph N/A   Clear
6:00 PM 53.6 °F - 26.6 °F 35% 30.08 in 9.0 mi West 23.0 mph 29.9 mph N/A   Clear
7:00 PM 51.8 °F - 26.6 °F 38% 30.07 in 9.0 mi West 12.7 mph 18.4 mph N/A   Clear
8:00 PM 48.2 °F - 26.6 °F 43% 30.06 in 9.0 mi West 18.4 mph - N/A   Clear
9:00 PM 44.6 °F 38.8 °F 26.6 °F 49% 30.05 in 9.0 mi WSW 11.5 mph 18.4 mph N/A   Mostly Cloudy
10:00 PM 42.8 °F 38.0 °F 26.6 °F 53% 30.02 in 9.0 mi West 8.1 mph - N/A   Overcast
10:51 PM 46.4 °F 38.5 °F 23.0 °F 40% 29.99 in 9.0 mi West 21.9 mph 28.8 mph N/A   Partly Cloudy
11:00 PM 48.2 °F - 24.8 °F 40% 29.99 in 9.0 mi West 19.6 mph 26.5 mph N/A   Partly Cloudy